Regional Weather Roundup
Issued by NWS

Home | Current Version | Previous Version | Text Only | Print | Product List | Glossary Off
Versions: 1 2 3 4 5 6 7 8 9 10 11 12 13 14 15 16 17 18 19 20 21 22 23 24 25 26 27 28 29 30 31 32 33 34 35 36 37 38 39 40 41 42 43 44 45 46 47 48 49 50

000
ASUS43 KLOT 201800
RWRIL

ILLINOIS REGIONAL WEATHER ROUNDUP
NATIONAL WEATHER SERVICE CHICAGO/ROMEOVILLE IL
1200 PM CST SAT DEC 20 2014

NOTE: "FAIR" INDICATES FEW OR NO CLOUDS BELOW 12,000 FEET WITH NO
SIGNIFICANT WEATHER AND/OR OBSTRUCTIONS TO VISIBILITY.

* THESE STATIONS ARE NOT UNDER NWS QUALITY CONTROL. THEY ALSO MAY NOT
  REPORT WEATHER SUCH AS PRECIPITATION OR FOG.

ILZ001-002-007-009-015-016-024-201900-
NORTHWEST ILLINOIS

CITY           SKY/WX    TMP DP  RH WIND       PRES   REMARKS
MOLINE         CLOUDY    33  26  75 SE7       30.23F HAZE    WCI  27
6HR MIN TEMP:  29; 6HR MAX TEMP:  33;

STERLING*      CLOUDY    30  25  80 SE6       30.26F WCI  24
$$

ILZ003-004-008-010-011-017-018-201900-
NORTH CENTRAL ILLINOIS

CITY           SKY/WX    TMP DP  RH WIND       PRES   REMARKS
ROCKFORD       LGT SNOW  30  26  85 S6        30.28F FOG     WCI  24
6HR MIN TEMP:  27; 6HR MAX TEMP:  30; 6HR PCP: TRACE;

$$

ILZ005-006-012>014-019>023-201900-
NORTHEAST ILLINOIS

CITY           SKY/WX    TMP DP  RH WIND       PRES   REMARKS
CHICAGO-OHARE  CLOUDY    31  23  72 S8        30.26F WCI  23
6HR MIN TEMP:  29; 6HR MAX TEMP:  31;

CHICAGO-MIDWAY CLOUDY    34  25  69 SW9       30.27F WCI  27
6HR MIN TEMP:  32; 6HR MAX TEMP:  34; 6HR PCP: TRACE;

AURORA         CLOUDY    31  24  75 SW6       30.27F HAZE    WCI  25
6HR MIN TEMP:  27; 6HR MAX TEMP:  31;

WAUKEGAN       CLOUDY    31  23  72 SW7       30.25F WCI  24
6HR MIN TEMP:  27; 6HR MAX TEMP:  31;

DUPAGE AIRPORT CLOUDY    31  24  75 S7        30.25F WCI  24
6HR MIN TEMP:  28; 6HR MAX TEMP:  31;

WHEELING       CLOUDY    32  23  69 S9        30.27F WCI  24
6HR MIN TEMP:  28; 6HR MAX TEMP:  32;

NORTHERLY ISL    N/A     32  24  73 S9          N/A  WCI  24
$$

LMZ740>746-201900-
SOUTHERN LAKE MICHIGAN

STATION/POSITION SKY/WX   TEMP    WIND        PRES    VSBY  WAVE
                          AIR SEA DIR/SP/G                  HT/PER
                          (F)     (DEG/KT/KT) (MB)    (MI)  (FT/S)
WAUKEGAN HARBOR            31     210/  7/ 11   N/A
HARRISON CRIB              31     200/ 11/ 13   N/A
BURNHAM HARBOR             33     180/  8/  9   N/A
CALUMET HARBOR             32     210/  6/  8 1024.0F
$$

ILZ025>027-034>036-040-047-049-050-058-095>099-201900-
WEST-CENTRAL ILLINOIS

CITY           SKY/WX    TMP DP  RH WIND       PRES   REMARKS
QUINCY         CLOUDY    36  31  82 S8        30.22F HAZE    WCI  30
MACOMB*        CLOUDY    34  30  86 SE6       30.26F FOG     WCI  29
$$

ILZ028>032-037-038-041>044-048-051>054-059>061-201900-
CENTRAL ILLINOIS

CITY           SKY/WX    TMP DP  RH WIND       PRES   REMARKS
DECATUR        CLOUDY    34  28  79 S8        30.27F WCI  27
PEORIA         CLOUDY    34  26  72 SE6       30.26F WCI  29
6HR MIN TEMP:  29; 6HR MAX TEMP:  35;

LINCOLN*       CLOUDY    35  29  81 S5        30.27F WCI  31
SPRINGFIELD    CLOUDY    37  28  70 SE8       30.26F WCI  31
6HR MIN TEMP:  32; 6HR MAX TEMP:  37;

TAYLORVILLE    NOT AVBL
$$

ILZ033-039-045-046-055>057-062-063-201900-
EAST-CENTRAL ILLINOIS

CITY           SKY/WX    TMP DP  RH WIND       PRES   REMARKS
CHAMPAIGN      CLOUDY    33  26  75 S9        30.27F WCI  25
MATTOON        CLOUDY    33  26  75 S5        30.27F WCI  29
$$

ILZ079-100>102-201900-
SOUTHWEST ILLINOIS

CITY           SKY/WX    TMP DP  RH WIND       PRES   REMARKS
ALTON          CLOUDY    37  30  75 S7        30.26F WCI  32
CAHOKIA*       CLOUDY    40  33  76 CALM      30.26F
SPARTA*        CLOUDY    38  32  78 CALM      30.27F
$$

ILZ064>066-069>071-074>076-080>082-084>086-088>090-092>094-201900-
SOUTH-CENTRAL ILLINOIS

CITY           SKY/WX    TMP DP  RH WIND       PRES   REMARKS
CARBONDALE     CLOUDY    40  29  64 CALM      30.28F
6HR MIN TEMP:  33; 6HR MAX TEMP:  40;

MARION         CLOUDY    41  32  70 E7        30.29F
MT. VERNON     CLOUDY    37  27  65 CALM      30.28F
SALEM*         CLOUDY    39  30  72 E6        30.27F WCI  34
$$

ILZ067-068-072-073-078-083-087-091-201900-
SOUTHEAST ILLINOIS

CITY           SKY/WX    TMP DP  RH WIND       PRES   REMARKS
LAWRENCEVILLE  CLOUDY    35  27  72 VRB3      30.29F
ROBINSON*      CLOUDY    35  27  74 CALM      30.31F
$$

ABBREVIATIONS USED IN REMARKS
   TC - TEMPERATURE IN CELSIUS
  WCI - WIND CHILL INDEX
   HX - HEAT INDEX
  VSB - VISIBILITY
$$



USA.gov is the U.S. government's official web portal to all federal, state and local government web resources and services.